STARLINK-35663 (66491 NORAD) Tracking and Keplerian Element Data

This shows tracking and keplerian element data for the satellite.

Feedback or suggestion? Click here.




ElementValue
Catalog66491
NameSTARLINK-35663
Epoch Orbit609
Epoch Day354.25003472
Epoch Year2025
RAAN81.3569
Inclination43.0011
Eccentricity0.0002096
Argument of Perigee289.5172
Mean Anonmoly162.9024
Mean Motion15.40663932
Decay Rate0.00073027
L11 66491U 25263G 25354.25003472 .00073027 00000+0 17408-2 0 9996
L22 66491 43.0011 81.3569 0002096 289.5172 162.9024 15.40663932 6098



Live tracking and technical data element details for STARLINK-35663 (NORAD 66491). STARLINK-35663 can be tracked NOW for your location showing map with azimuth and elevation plus other details from your city location.







IsCatalogInMostPopularTable: catalog: 66491, numindb: 3
Update: records affected: 1



GetName: 66491 STARLINK-35663

Hit Count: updated at: Sat, 07 Feb 2026 07:15:39 GMT